TimeEDT,TemperatureF,Dew PointF,Humidity,Sea Level PressureIn,VisibilityMPH,Wind Direction,Wind SpeedMPH,Gust SpeedMPH,PrecipitationIn,Events,Conditions,WindDirDegrees,DateUTC
12:15 AM,41.2,38.5,90,30.18,5.0,East,8.1,-,0.01,Rain,Rain,90,2013-04-27 04:15:00
12:35 AM,41.7,38.8,89,30.18,10.0,East,8.1,-,0.01,,Overcast,100,2013-04-27 04:35:00
12:55 AM,41.9,38.5,88,30.20,10.0,ENE,4.6,-,0.01,,Overcast,60,2013-04-27 04:55:00
1:15 AM,40.1,37.4,90,30.20,7.0,Calm,Calm,-,N/A,,Overcast,0,2013-04-27 05:15:00
1:35 AM,39.9,37.2,90,30.20,5.0,NE,4.6,-,N/A,,Mostly Cloudy,50,2013-04-27 05:35:00
1:55 AM,39.6,37.2,91,30.20,7.0,SE,5.8,-,N/A,,Mostly Cloudy,140,2013-04-27 05:55:00
2:15 AM,41.9,39.6,91,30.19,10.0,SE,6.9,-,N/A,,Overcast,140,2013-04-27 06:15:00
2:36 AM,43.9,39.2,84,30.19,10.0,SSE,6.9,-,N/A,,Overcast,150,2013-04-27 06:36:00
2:55 AM,44.8,39.0,80,30.18,10.0,SSE,8.1,-,N/A,,Scattered Clouds,160,2013-04-27 06:55:00
3:15 AM,44.1,39.0,82,30.18,10.0,South,6.9,-,N/A,,Clear,190,2013-04-27 07:15:00
3:35 AM,40.5,37.6,89,30.18,7.0,South,8.1,-,N/A,,Clear,190,2013-04-27 07:35:00
3:55 AM,45.3,40.6,84,30.18,10.0,SW,8.1,-,N/A,,Clear,230,2013-04-27 07:55:00
4:15 AM,43.9,39.7,85,30.18,10.0,WSW,5.8,-,N/A,,Clear,250,2013-04-27 08:15:00
4:35 AM,42.4,38.8,87,30.18,10.0,WSW,6.9,-,N/A,,Clear,240,2013-04-27 08:35:00
4:55 AM,43.3,40.1,88,30.18,10.0,SW,10.4,-,N/A,,Clear,230,2013-04-27 08:55:00
5:15 AM,45.5,41.2,85,30.18,10.0,SW,10.4,17.3,N/A,,Clear,230,2013-04-27 09:15:00
5:35 AM,45.3,40.6,84,30.18,10.0,WSW,8.1,-,N/A,,Clear,240,2013-04-27 09:35:00
5:55 AM,44.1,40.1,86,30.18,10.0,WSW,6.9,-,N/A,,Clear,250,2013-04-27 09:55:00
6:15 AM,42.8,39.4,88,30.18,10.0,West,8.1,-,N/A,,Clear,260,2013-04-27 10:15:00
6:35 AM,42.1,39.4,90,30.18,10.0,WSW,6.9,-,N/A,,Clear,250,2013-04-27 10:35:00
6:55 AM,41.9,39.6,91,30.18,7.0,WSW,5.8,-,N/A,,Clear,250,2013-04-27 10:55:00
7:15 AM,41.9,39.9,93,30.18,7.0,WSW,3.5,-,N/A,,Clear,250,2013-04-27 11:15:00
7:35 AM,41.9,39.9,93,30.18,7.0,Calm,Calm,-,N/A,,Clear,0,2013-04-27 11:35:00
7:55 AM,44.1,42.1,93,30.19,7.0,Calm,Calm,-,N/A,,Clear,0,2013-04-27 11:55:00
8:15 AM,46.8,43.2,87,30.20,10.0,Calm,Calm,-,N/A,,Clear,0,2013-04-27 12:15:00
8:35 AM,47.7,43.0,84,30.20,10.0,Calm,Calm,-,N/A,,Clear,0,2013-04-27 12:35:00
8:55 AM,50.4,45.1,82,30.20,10.0,West,3.5,-,N/A,,Clear,260,2013-04-27 12:55:00
9:15 AM,51.3,44.1,76,30.21,10.0,West,3.5,-,N/A,,Clear,270,2013-04-27 13:15:00
9:35 AM,51.8,43.9,74,30.21,10.0,WSW,8.1,-,N/A,,Clear,240,2013-04-27 13:35:00
9:55 AM,52.2,43.7,73,30.21,10.0,WSW,4.6,-,N/A,,Clear,250,2013-04-27 13:55:00
10:16 AM,52.7,43.7,71,30.21,10.0,WSW,8.1,-,N/A,,Scattered Clouds,240,2013-04-27 14:16:00
10:35 AM,52.9,44.1,72,30.21,10.0,WSW,5.8,-,N/A,,Mostly Cloudy,240,2013-04-27 14:35:00
10:55 AM,54.1,44.6,70,30.21,10.0,WSW,5.8,-,N/A,,Mostly Cloudy,240,2013-04-27 14:55:00
11:16 AM,53.8,44.1,70,30.21,10.0,WSW,9.2,16.1,N/A,,Mostly Cloudy,240,2013-04-27 15:16:00
11:35 AM,53.2,44.2,72,30.21,10.0,WSW,11.5,17.3,N/A,,Mostly Cloudy,240,2013-04-27 15:35:00
11:55 AM,54.0,44.2,70,30.21,10.0,WSW,9.2,-,N/A,,Scattered Clouds,250,2013-04-27 15:55:00
12:16 PM,54.5,44.6,69,30.21,10.0,WSW,5.8,-,N/A,,Clear,240,2013-04-27 16:16:00
12:35 PM,55.8,45.1,67,30.21,10.0,SW,5.8,-,N/A,,Clear,220,2013-04-27 16:35:00
12:55 PM,54.9,44.2,67,30.21,10.0,SW,8.1,-,N/A,,Clear,230,2013-04-27 16:55:00
1:16 PM,55.4,44.8,67,30.20,10.0,WSW,8.1,-,N/A,,Clear,240,2013-04-27 17:16:00
1:35 PM,55.6,45.1,68,30.19,10.0,WSW,4.6,-,N/A,,Clear,240,2013-04-27 17:35:00
1:55 PM,56.5,45.7,67,30.19,10.0,WSW,5.8,-,N/A,,Clear,250,2013-04-27 17:55:00
2:16 PM,58.5,46.2,64,30.18,10.0,WSW,4.6,-,N/A,,Clear,250,2013-04-27 18:16:00
2:35 PM,57.6,45.5,64,30.18,10.0,Calm,Calm,-,N/A,,Clear,0,2013-04-27 18:35:00
2:55 PM,56.5,45.3,66,30.18,10.0,Calm,Calm,-,N/A,,Clear,0,2013-04-27 18:55:00
3:15 PM,57.2,45.9,66,30.17,10.0,West,3.5,-,N/A,,Mostly Cloudy,260,2013-04-27 19:15:00
3:35 PM,57.7,46.0,65,30.17,10.0,SW,4.6,-,N/A,,Scattered Clouds,220,2013-04-27 19:35:00
3:55 PM,57.2,45.5,65,30.17,10.0,WNW,3.5,-,N/A,,Clear,290,2013-04-27 19:55:00
4:15 PM,58.1,45.7,63,30.16,10.0,East,8.1,-,N/A,,Clear,90,2013-04-27 20:15:00
4:35 PM,57.6,45.7,65,30.16,10.0,East,6.9,-,N/A,,Clear,100,2013-04-27 20:35:00
4:55 PM,57.9,45.7,64,30.15,10.0,East,6.9,-,N/A,,Scattered Clouds,90,2013-04-27 20:55:00
5:15 PM,57.6,45.5,64,30.15,10.0,ESE,5.8,-,N/A,,Scattered Clouds,110,2013-04-27 21:15:00
5:35 PM,58.5,45.3,62,30.14,10.0,ESE,9.2,-,N/A,,Clear,110,2013-04-27 21:35:00
5:55 PM,58.6,45.5,62,30.13,10.0,ESE,6.9,-,N/A,,Clear,110,2013-04-27 21:55:00
6:15 PM,58.3,45.3,62,30.14,10.0,East,6.9,-,N/A,,Clear,100,2013-04-27 22:15:00
6:35 PM,58.3,45.1,62,30.14,10.0,East,9.2,-,N/A,,Clear,90,2013-04-27 22:35:00
6:55 PM,58.3,45.3,62,30.13,10.0,East,6.9,-,N/A,,Clear,90,2013-04-27 22:55:00
7:35 PM,56.8,44.6,64,30.11,10.0,East,4.6,-,N/A,,Clear,90,2013-04-27 23:35:00
7:55 PM,57.2,43.9,61,30.11,10.0,ESE,4.6,-,N/A,,Clear,120,2013-04-27 23:55:00
8:15 PM,56.3,43.0,61,30.10,10.0,ESE,4.6,-,N/A,,Clear,110,2013-04-28 00:15:00
8:35 PM,54.7,42.6,64,30.10,10.0,SE,5.8,-,N/A,,Clear,130,2013-04-28 00:35:00
8:55 PM,53.6,41.5,64,30.10,10.0,SE,4.6,-,N/A,,Clear,140,2013-04-28 00:55:00
9:15 PM,52.0,40.3,64,30.10,10.0,SE,6.9,-,N/A,,Clear,140,2013-04-28 01:15:00
9:35 PM,49.8,40.1,69,30.10,10.0,South,3.5,-,N/A,,Clear,170,2013-04-28 01:35:00
9:55 PM,48.9,40.3,72,30.10,10.0,SE,4.6,-,N/A,,Clear,140,2013-04-28 01:55:00
10:15 PM,47.5,39.7,75,30.10,10.0,SE,3.5,-,N/A,,Clear,130,2013-04-28 02:15:00
10:35 PM,47.7,39.7,74,30.10,10.0,ESE,4.6,-,N/A,,Clear,110,2013-04-28 02:35:00
10:55 PM,49.1,39.2,69,30.10,10.0,SE,5.8,-,N/A,,Clear,130,2013-04-28 02:55:00
11:15 PM,47.7,38.7,71,30.10,10.0,SE,3.5,-,N/A,,Clear,140,2013-04-28 03:15:00
11:35 PM,45.0,38.7,79,30.09,10.0,SE,4.6,-,N/A,,Clear,130,2013-04-28 03:35:00
11:55 PM,45.5,38.5,76,30.09,10.0,SSE,4.6,-,N/A,,Clear,150,2013-04-28 03:55:00